Погода в Потоси

Боливия     19°35′11″S   65°44′24″W
темп.,
°C
ветер,
м/с
пор.,
м/с
влажн.,
%
обл.,
%
осадки,
мм/ч
давл.,
гПа
погр.,
м
30 июня, чт
чт3023:00+5зюз11440 0.0 102010
02:00+3зюз11360 0.0 102010
05:00+1юз11260 0.0 101910
08:00+4юз22170 0.0 102215
11:00+10зсз2290 0.0 1019547
14:00+14сз1360 0.0 10132277
17:00+13ю0260 0.0 10102079
20:00+7сз01180 0.0 101411
1 июля, пт
пт123:00+5з22200 0.0 101710
02:00+3зюз22182 0.0 101711
05:00+1зюз33170 0.0 101711
08:00+3зюз22185 0.0 101920
11:00+12зсз3765 0.0 10131175
14:00+15зюз4755 0.0 10092008
17:00+13з4490 0.0 10101109
20:00+7зюз22130 0.0 101610
2 июля, сб
сб223:00+4зюз33140 0.0 101810
02:00+3юз33120 0.0 101910
05:00+1зюз2280 0.0 101810
08:00+4зюз11110 0.0 102010
11:00+10сз1165 0.0 1017362
14:00+14с2346 0.0 10121324
17:00+13св4480 0.0 1011475
20:00+7всв22160 0.0 101510
3 июля, вс
вс323:00+5ссз112144 0.0 101810
02:00+3з112399 0.0 101710
05:00+2з11227 0.0 101710
08:00+5з11227 0.0 102010
11:00+11сз22165 0.0 1017590
14:00+15ссз47150 0.0 10112726
17:00+14з76170 0.0 10112005
20:00+9юз22350 0.0 101614
4 июля, пн
пн423:00+6юз11390 0.0 101811
02:00+5юз22355 0.0 101911
05:00+3зюз113881 0.0 101910
08:00+6зюз11365 0.0 102111
11:00+11зсз222140 0.0 1019604
14:00+14с2516100 0.0 10132503
17:00+14з551599 0.0 10122351
20:00+10ююз2228100 0.0 101723